• Em Portugal
  • Lista de países
  • Para 7 dias
  • Temperatura da água
  • Mapas de satélite
  • Mapa do tempo
  • Widgets de tempo
  • user-avatar
    Iniciar Sessão

    Previsão horária em Irbid

    Hoje, 23 Novembro, Quinta-feira

    Tempo Temperatura Precipitação Vento Pressão Humidade
    00:00 +10°C° 0 mm 3 m/s 713 mmHg 71%
    01:00 +10°C° 0 mm 2 m/s 713 mmHg 73%
    02:00 +9°C° 0 mm 2 m/s 713 mmHg 74%
    03:00 +9°C° 0 mm 2 m/s 713 mmHg 75%
    04:00 +9°C° 0 mm 2 m/s 713 mmHg 76%
    05:00 +9°C° 0 mm 2 m/s 713 mmHg 77%
    06:00 +9°C° 0 mm 2 m/s 713 mmHg 74%
    07:00 +10°C° 0 mm 2 m/s 713 mmHg 70%
    08:00 +10°C° 0 mm 2 m/s 714 mmHg 67%
    09:00 +13°C° 0 mm 2 m/s 714 mmHg 62%
    10:00 +13°C° 0 mm 3 m/s 714 mmHg 57%
    11:00 +14°C° 0 mm 4 m/s 714 mmHg 52%
    12:00 +14°C° 0 mm 4 m/s 714 mmHg 51%
    13:00 +15°C° 0 mm 4 m/s 713 mmHg 49%
    14:00 +15°C° 0 mm 5 m/s 713 mmHg 48%
    15:00 +14°C° 0,1 mm 4 m/s 713 mmHg 52%
    16:00 +14°C° 0,1 mm 4 m/s 713 mmHg 55%
    17:00 +13°C° 0,1 mm 4 m/s 713 mmHg 58%
    18:00 +12°C° 0 mm 3 m/s 713 mmHg 61%
    19:00 +12°C° 0 mm 3 m/s 713 mmHg 64%
    20:00 +12°C° 0 mm 2 m/s 714 mmHg 66%
    21:00 +12°C° 0 mm 2 m/s 714 mmHg 69%
    22:00 +12°C° 0 mm 2 m/s 714 mmHg 71%
    23:00 +10°C° 0 mm 2 m/s 714 mmHg 74%

    Amanhã, 24 Novembro, Sexta-feira

    Tempo Temperatura Precipitação Vento Pressão Humidade
    00:00 +11°C° 0 mm 1 m/s 714 mmHg 75%
    01:00 +11°C° 0 mm 1 m/s 714 mmHg 77%
    02:00 +10°C° 0 mm 1 m/s 714 mmHg 78%
    03:00 +10°C° 0 mm 1 m/s 714 mmHg 79%
    04:00 +10°C° 0 mm 1 m/s 714 mmHg 80%
    05:00 +10°C° 0 mm 1 m/s 714 mmHg 81%
    06:00 +11°C° 0 mm 1 m/s 714 mmHg 77%
    07:00 +11°C° 0 mm 1 m/s 714 mmHg 74%
    08:00 +12°C° 0 mm 1 m/s 715 mmHg 70%
    09:00 +13°C° 0 mm 1 m/s 715 mmHg 65%
    10:00 +15°C° 0 mm 2 m/s 715 mmHg 60%
    11:00 +16°C° 0 mm 2 m/s 715 mmHg 55%
    12:00 +16°C° 0 mm 2 m/s 715 mmHg 53%
    13:00 +17°C° 0 mm 2 m/s 715 mmHg 51%
    14:00 +17°C° 0 mm 3 m/s 715 mmHg 49%
    15:00 +16°C° 0 mm 2 m/s 715 mmHg 52%
    16:00 +16°C° 0 mm 2 m/s 715 mmHg 56%
    17:00 +15°C° 0 mm 2 m/s 715 mmHg 59%
    18:00 +15°C° 0 mm 1 m/s 715 mmHg 62%
    19:00 +14°C° 0 mm 1 m/s 715 mmHg 65%
    20:00 +14°C° 0 mm 1 m/s 715 mmHg 68%
    21:00 +14°C° 0 mm 1 m/s 715 mmHg 69%
    22:00 +13°C° 0 mm 1 m/s 715 mmHg 71%
    23:00 +13°C° 0 mm 1 m/s 715 mmHg 72%

    Depois de amanhã, 25 Novembro, Sábado

    Tempo Temperatura Precipitação Vento Pressão Humidade
    00:00 +13°C° 0 mm 1 m/s 715 mmHg 71%
    01:00 +13°C° 0 mm 1 m/s 715 mmHg 70%
    02:00 +13°C° 0 mm 1 m/s 715 mmHg 69%
    03:00 +12°C° 0 mm 1 m/s 715 mmHg 68%
    04:00 +12°C° 0 mm 2 m/s 715 mmHg 66%
    05:00 +12°C° 0 mm 2 m/s 714 mmHg 64%
    06:00 +12°C° 0 mm 3 m/s 715 mmHg 60%
    07:00 +13°C° 0 mm 3 m/s 715 mmHg 55%
    08:00 +13°C° 0 mm 4 m/s 715 mmHg 50%
    09:00 +15°C° 0 mm 4 m/s 715 mmHg 45%
    10:00 +17°C° 0 mm 4 m/s 715 mmHg 39%
    11:00 +17°C° 0 mm 5 m/s 715 mmHg 34%
    12:00 +19°C° 0 mm 5 m/s 715 mmHg 32%
    13:00 +20°C° 0 mm 5 m/s 714 mmHg 30%
    14:00 +20°C° 0 mm 4 m/s 714 mmHg 28%
    15:00 +19°C° 0 mm 4 m/s 713 mmHg 29%
    16:00 +19°C° 0 mm 4 m/s 713 mmHg 31%
    17:00 +18°C° 0 mm 3 m/s 713 mmHg 33%
    18:00 +17°C° 0 mm 3 m/s 713 mmHg 35%
    19:00 +17°C° 0 mm 3 m/s 713 mmHg 36%
    20:00 +15°C° 0 mm 4 m/s 713 mmHg 38%
    21:00 +15°C° 0 mm 4 m/s 713 mmHg 38%
    22:00 +14°C° 0 mm 4 m/s 713 mmHg 39%
    23:00 +14°C° 0 mm 4 m/s 713 mmHg 39%

    26 Novembro, Domingo

    Tempo Temperatura Precipitação Vento Pressão Humidade
    00:00 +14°C° 0 mm 3 m/s 712 mmHg 39%
    01:00 +14°C° 0 mm 3 m/s 712 mmHg 39%
    02:00 +14°C° 0 mm 3 m/s 712 mmHg 39%
    03:00 +14°C° 0 mm 3 m/s 712 mmHg 41%
    04:00 +13°C° 0 mm 3 m/s 712 mmHg 42%
    05:00 +13°C° 0 mm 3 m/s 712 mmHg 43%
    06:00 +14°C° 0 mm 3 m/s 712 mmHg 43%
    07:00 +14°C° 0 mm 3 m/s 713 mmHg 43%
    08:00 +14°C° 0 mm 3 m/s 713 mmHg 43%
    09:00 +16°C° 0 mm 3 m/s 713 mmHg 41%
    10:00 +17°C° 0 mm 2 m/s 713 mmHg 40%
    11:00 +18°C° 0 mm 2 m/s 713 mmHg 38%
    12:00 +19°C° 0 mm 2 m/s 713 mmHg 37%
    13:00 +19°C° 0 mm 2 m/s 713 mmHg 36%
    14:00 +19°C° 0 mm 2 m/s 713 mmHg 35%
    15:00 +19°C° 0 mm 2 m/s 713 mmHg 37%
    16:00 +18°C° 0 mm 2 m/s 713 mmHg 40%
    17:00 +17°C° 0 mm 2 m/s 713 mmHg 42%
    18:00 +17°C° 0 mm 2 m/s 713 mmHg 45%
    19:00 +16°C° 0 mm 2 m/s 713 mmHg 48%
    20:00 +15°C° 0 mm 2 m/s 713 mmHg 50%
    21:00 +15°C° 0 mm 2 m/s 713 mmHg 53%
    22:00 +14°C° 0 mm 2 m/s 713 mmHg 55%
    23:00 +14°C° 0 mm 2 m/s 713 mmHg 58%

    27 Novembro, Segunda-feira

    Tempo Temperatura Precipitação Vento Pressão Humidade
    00:00 +13°C° 0 mm 2 m/s 713 mmHg 60%
    01:00 +13°C° 0 mm 2 m/s 713 mmHg 62%
    02:00 +12°C° 0 mm 1 m/s 713 mmHg 64%
    03:00 +12°C° 0 mm 1 m/s 713 mmHg 66%
    04:00 +12°C° 0 mm 1 m/s 713 mmHg 67%
    05:00 +11°C° 0 mm 1 m/s 713 mmHg 69%
    06:00 +12°C° 0 mm 1 m/s 714 mmHg 66%
    07:00 +13°C° 0 mm 2 m/s 714 mmHg 63%
    08:00 +13°C° 0 mm 2 m/s 714 mmHg 60%
    09:00 +15°C° 0 mm 2 m/s 714 mmHg 56%
    10:00 +16°C° 0 mm 2 m/s 714 mmHg 52%
    11:00 +17°C° 0 mm 2 m/s 714 mmHg 48%
    12:00 +17°C° 0 mm 2 m/s 714 mmHg 46%
    13:00 +18°C° 0 mm 2 m/s 714 mmHg 45%
    14:00 +18°C° 0 mm 2 m/s 713 mmHg 44%
    15:00 +18°C° 0 mm 2 m/s 713 mmHg 47%
    16:00 +17°C° 0 mm 2 m/s 714 mmHg 51%
    17:00 +16°C° 0 mm 2 m/s 714 mmHg 55%
    18:00 +16°C° 0 mm 2 m/s 714 mmHg 58%
    19:00 +15°C° 0 mm 2 m/s 714 mmHg 62%
    20:00 +15°C° 0 mm 2 m/s 714 mmHg 66%
    21:00 +14°C° 0 mm 1 m/s 714 mmHg 69%
    22:00 +14°C° 0 mm 1 m/s 714 mmHg 71%
    23:00 +14°C° 0 mm 1 m/s 714 mmHg 73%

    28 Novembro, Terça-feira

    Tempo Temperatura Precipitação Vento Pressão Humidade
    00:00 +13°C° 0 mm 1 m/s 714 mmHg 75%
    01:00 +13°C° 0 mm 1 m/s 714 mmHg 77%
    02:00 +13°C° 0 mm 1 m/s 714 mmHg 79%
    03:00 +13°C° 0 mm 1 m/s 714 mmHg 80%
    04:00 +12°C° 0 mm 1 m/s 714 mmHg 82%
    05:00 +12°C° 0 mm 1 m/s 713 mmHg 83%
    06:00 +13°C° 0 mm 1 m/s 714 mmHg 78%
    07:00 +14°C° 0 mm 1 m/s 714 mmHg 74%
    08:00 +14°C° 0 mm 1 m/s 715 mmHg 70%
    09:00 +15°C° 0 mm 2 m/s 715 mmHg 63%
    10:00 +17°C° 0 mm 2 m/s 715 mmHg 56%
    11:00 +18°C° 0 mm 2 m/s 715 mmHg 49%
    12:00 +18°C° 0 mm 2 m/s 714 mmHg 47%
    13:00 +19°C° 0 mm 2 m/s 714 mmHg 44%
    14:00 +19°C° 0 mm 2 m/s 714 mmHg 42%
    15:00 +18°C° 0 mm 2 m/s 714 mmHg 44%
    16:00 +18°C° 0 mm 2 m/s 713 mmHg 47%
    17:00 +18°C° 0 mm 1 m/s 713 mmHg 49%
    18:00 +18°C° 0 mm 1 m/s 713 mmHg 52%
    19:00 +16°C° 0 mm 1 m/s 714 mmHg 54%
    20:00 +15°C° 0 mm 1 m/s 714 mmHg 57%
    21:00 +15°C° 0 mm 1 m/s 714 mmHg 59%
    22:00 +15°C° 0 mm 1 m/s 713 mmHg 62%
    23:00 +14°C° 0 mm 1 m/s 713 mmHg 64%
    Mostrar mais